Погода в Степанцминде

Грузия     42°39′23″N   44°38′35″E
темп.,
°C
ветер,
м/с
пор.,
м/с
влажн.,
%
обл.,
%
осадки,
мм/ч
давл.,
гПа
погр.,
м
18 сентября, сб
сб1801:00+6ююз4491100 0.1 1017153
04:00+5ю459071 0.1 1017185
07:00+4ююз339141 0.0 1018135
10:00+9ю027366 0.1 1016752
13:00+9сз027786 0.7 1016752
16:00+9з028171 1.6 1016636
19:00+7ю229444 0.6 1017114
22:00+5ю459235 0.6 1018144
19 сентября, вс
вс1901:00+6ю5690100 0.0 1018235
04:00+6ю568929 0.0 1018256
07:00+5ю568735 0.0 1018229
10:00+10ю336348 0.0 1017683
13:00+13ю23516 0.0 10151316
16:00+13ююз135494 0.3 10141294
19:00+8ю3484100 0.3 101675
22:00+8ю568295 0.3 1017132
20 сентября, пн
пн2001:00+6ю568850 0.0 1017134
04:00+6ю568723 0.0 1017199
07:00+5ююз448496 0.0 101853
10:00+12ю125618 0.0 1015851
13:00+13с125984 0.4 10141229
16:00+12с127276 2.5 1014676
19:00+8ююз118721 1.6 101626
22:00+6ююз338428 2.1 101835
21 сентября, вт
вт2101:00+6ююз338698 0.0 101850
04:00+5ююз32881 0.0 101925
07:00+4ююз218811 0.0 102014
10:00+10ссв117428 0.0 1018701
13:00+12св136751 0.1 10161139
16:00+10св137763 0.4 1016693
19:00+8в1191100 0.1 101882
22:00+6ю348889 0.2 101953
22 сентября, ср
ср2201:00+6ю5778100 0.0 1017167
04:00+5ююз57658 0.0 1016131
07:00+4ю556620 0.0 101774
10:00+10ююз025398 0.0 1015884
13:00+13св135450 0.0 10131369
16:00+9с1282100 0.6 1014515
19:00+7юз128751 0.9 101667
22:00+5ю228751 1.1 101739